This is the latest recevied weather packets stored in our database for station/object N8BAP. If no packets are shown the sender has not sent any weather packets the latest 10 day(s).
| Time | Temp. | Humidity | Pressure | Rain* | Wind** | Luminosity | Snow |
|---|---|---|---|---|---|---|---|
| 1788545801 | 33.89° C | 56% | 1021.2 hPa | 0 mm | - | 644 W/m² | - |
| 1788545496 | 33.89° C | 55% | 1021.2 hPa | 0 mm | - | 203 W/m² | - |
| 1788545191 | 33.89° C | 52% | 1021.2 hPa | 0 mm | - | 679 W/m² | - |
| 1788544887 | 33.89° C | 53% | 1021.3 hPa | 0 mm | - | 698 W/m² | - |
| 1788544585 | 33.89° C | 55% | 1021.2 hPa | 0 mm | - | 675 W/m² | - |
| 1788544284 | 33.89° C | 53% | 1021.3 hPa | 0 mm | - | 685 W/m² | - |
| 1788543979 | 33.89° C | 53% | 1021.4 hPa | 0 mm | - | 692 W/m² | - |
| 1788543675 | 33.89° C | 52% | 1021.6 hPa | 0 mm | - | 695 W/m² | - |
| 1788543376 | 33.89° C | 54% | 1021.7 hPa | 0 mm | - | 700 W/m² | - |
| 1788543071 | 33.89° C | 55% | 1021.6 hPa | 0 mm | - | 674 W/m² | - |
| 1788542767 | 33.89° C | 56% | 1021.9 hPa | 0 mm | - | 632 W/m² | - |
| 1788542466 | 33.89° C | 55% | 1021.7 hPa | 0 mm | - | 656 W/m² | - |
| 1788542161 | 33.89° C | 59% | 1022.1 hPa | 0 mm | - | 608 W/m² | - |
| 1788541857 | 33.33° C | 56% | 1021.8 hPa | 0 mm | - | 606 W/m² | - |
| 1788541552 | 33.33° C | 57% | 1021.9 hPa | 0 mm | - | 571 W/m² | - |
| 1788541249 | 33.33° C | 62% | 1022.1 hPa | 0 mm | - | 616 W/m² | - |
| 1788540947 | 33.33° C | 58% | 1022.1 hPa | 0 mm | - | 581 W/m² | - |
| 1788540647 | 33.33° C | 60% | 1022.1 hPa | 0 mm | - | 586 W/m² | - |
| 1788540342 | 32.78° C | 60% | 1022.3 hPa | 0 mm | - | 577 W/m² | - |
| 1788540038 | 32.78° C | 57% | 1022.1 hPa | 0 mm | - | 609 W/m² | - |
| 1788539737 | 33.33° C | 59% | 1022.1 hPa | 0 mm | - | 607 W/m² | - |
| 1788539432 | 32.78° C | 63% | 1022.2 hPa | 0 mm | - | 606 W/m² | - |
| 1788539127 | 32.78° C | 58% | 1022.2 hPa | 0 mm | - | 588 W/m² | - |
| 1788538822 | 32.78° C | 59% | 1022.2 hPa | 0 mm | - | 570 W/m² | - |
| 1788538517 | 32.78° C | 61% | 1022.3 hPa | 0 mm | - | 612 W/m² | - |
* Rain latest hour (hover to see other rain measurements)
** Current wind speed in m/s (hover to see current wind gust speed)